Location: Boss Branch
(32.3799°N, 97.2508°W)
Time: 20:48:54
(UTC+00:00)

BlueWalker 3 - Visible Passes

Search period start: 19 January 2026 00:00
Search period end: 29 January 2026 00:00
Orbit: 451 x 463 km, 53.2° (Epoch: 19 January)

Date Brightness Start Highest point End Pass type
(mag) Time Alt. Az. Time Alt. Az. Time Alt. Az.
19 Jan 1.6 01:17:33 10° SW 01:21:06 88° NW 01:21:39 62° NE visible
20 Jan 1.7 00:42:15 10° SSW 00:45:45 64° SE 00:48:12 19° NE visible
20 Jan 5.0 02:21:45 10° WNW 02:21:58 11° WNW 02:21:58 11° WNW visible
21 Jan 4.1 01:45:41 10° WNW 01:48:04 17° NW 01:48:24 17° NNW visible
22 Jan 3.8 01:09:47 10° W 01:12:34 21° NW 01:14:46 13° N visible
23 Jan 3.4 00:34:00 10° W 00:37:07 28° NW 00:40:13 10° NNE visible
